�������l�o���
Date,Time,MP-1(��Sv/h),MP-2(��Sv/h),MP-3(��Sv/h),MP-4(��Sv/h),MP-5(��Sv/h),MP-6(��Sv/h),MP-7(��Sv/h),MP-8(��Sv/h),����,����(m/s),���J
2023/05/15,00:00,0.556,0.811,0.488,0.994,0.709,0.322,0.573,0.540,��쓌,8.1,�L
2023/05/15,00:10,0.556,0.810,0.489,0.995,0.710,0.321,0.573,0.542,��,7.2,�L
2023/05/15,00:20,0.557,0.810,0.489,0.994,0.711,0.323,0.572,0.541,��쓌,7.8,�L
2023/05/15,00:30,0.558,0.811,0.489,0.994,0.712,0.322,0.576,0.540,��쓌,8.0,�L
2023/05/15,00:40,0.558,0.810,0.488,0.992,0.711,0.324,0.574,0.541,��쓌,7.0,�L
2023/05/15,00:50,0.557,0.810,0.487,0.995,0.710,0.322,0.572,0.539,��쓌,8.7,�L
2023/05/15,01:00,0.551,0.800,0.484,0.988,0.702,0.320,0.570,0.539,��,9.5,�L
2023/05/15,01:10,0.550,0.795,0.483,0.983,0.700,0.320,0.568,0.537,��쓌,11.6,�L
2023/05/15,01:20,0.549,0.792,0.480,0.983,0.698,0.318,0.567,0.536,��,10.2,�L
2023/05/15,01:30,0.547,0.790,0.480,0.983,0.697,0.319,0.567,0.534,��,9.1,�L
2023/05/15,01:40,0.547,0.792,0.482,0.980,0.697,0.321,0.567,0.535,��,9.3,�L
2023/05/15,01:50,0.549,0.791,0.482,0.979,0.698,0.319,0.568,0.533,��,8.3,�L
2023/05/15,02:00,0.550,0.794,0.481,0.982,0.694,0.319,0.567,0.535,��,9.1,�L
2023/05/15,02:10,0.548,0.795,0.484,0.979,0.697,0.320,0.567,0.536,��,7.5,�L
2023/05/15,02:20,0.549,0.796,0.483,0.980,0.696,0.319,0.568,0.536,��,8.8,�L
2023/05/15,02:30,0.548,0.794,0.482,0.980,0.696,0.318,0.566,0.538,��쐼,9.1,�L
2023/05/15,02:40,0.547,0.796,0.483,0.980,0.696,0.320,0.566,0.538,��,8.8,�L
2023/05/15,02:50,0.547,0.795,0.483,0.981,0.695,0.319,0.567,0.537,��,7.3,�L
2023/05/15,03:00,0.548,0.795,0.482,0.979,0.697,0.320,0.569,0.537,��,7.9,�L
2023/05/15,03:10,0.546,0.793,0.481,0.979,0.692,0.319,0.567,0.538,��,7.7,�L
2023/05/15,03:20,0.545,0.793,0.481,0.976,0.691,0.319,0.565,0.536,��,7.5,�L
2023/05/15,03:30,0.545,0.793,0.481,0.973,0.691,0.318,0.565,0.539,��,8.8,�L
2023/05/15,03:40,0.545,0.791,0.480,0.974,0.692,0.319,0.566,0.537,��,7.3,�L
2023/05/15,03:50,0.547,0.791,0.480,0.975,0.692,0.318,0.565,0.536,��쐼,6.8,�L
2023/05/15,04:00,0.546,0.792,0.481,0.974,0.691,0.320,0.565,0.538,��,6.7,�L
2023/05/15,04:10,0.547,0.792,0.482,0.977,0.694,0.319,0.566,0.538,��,6.9,�L
2023/05/15,04:20,0.546,0.795,0.481,0.976,0.692,0.319,0.567,0.538,��,6.9,�L
2023/05/15,04:30,0.547,0.792,0.482,0.977,0.695,0.318,0.564,0.537,��,6.7,�L
2023/05/15,04:40,0.546,0.793,0.480,0.976,0.694,0.318,0.567,0.537,��,8.2,�L
2023/05/15,04:50,0.546,0.792,0.482,0.974,0.691,0.320,0.566,0.538,��,8.3,�L
2023/05/15,05:00,0.545,0.793,0.483,0.975,0.692,0.320,0.566,0.537,��,7.2,�L
2023/05/15,05:10,0.545,0.793,0.482,0.976,0.693,0.319,0.566,0.536,��,6.7,�L
2023/05/15,05:20,0.545,0.794,0.482,0.976,0.693,0.319,0.565,0.537,��쐼,7.3,�L
2023/05/15,05:30,0.546,0.792,0.481,0.973,0.693,0.319,0.566,0.537,��쐼,7.2,�L
2023/05/15,05:40,0.546,0.792,0.482,0.973,0.693,0.319,0.565,0.537,��쐼,6.8,�L
2023/05/15,05:50,0.544,0.791,0.482,0.973,0.692,0.319,0.565,0.536,��,7.2,�L
2023/05/15,06:00,0.545,0.791,0.481,0.973,0.693,0.319,0.566,0.537,��쐼,7.0,�L
2023/05/15,06:10,0.546,0.793,0.482,0.972,0.693,0.319,0.566,0.537,��쐼,6.7,�L
2023/05/15,06:20,0.546,0.793,0.481,0.972,0.694,0.319,0.567,0.538,��쐼,6.8,��
2023/05/15,06:30,0.546,0.792,0.480,0.975,0.694,0.317,0.565,0.537,��쐼,6.8,�L
2023/05/15,06:40,0.546,0.793,0.481,0.975,0.695,0.319,0.566,0.536,��,6.2,�L
2023/05/15,06:50,0.546,0.794,0.481,0.973,0.695,0.317,0.566,0.535,��,5.8,�L
2023/05/15,07:00,0.546,0.795,0.480,0.975,0.696,0.318,0.565,0.536,��쐼,8.1,�L
2023/05/15,07:10,0.548,0.793,0.483,0.974,0.695,0.317,0.567,0.536,��,7.0,�L
2023/05/15,07:20,0.548,0.793,0.482,0.971,0.697,0.317,0.567,0.537,��,6.9,��
2023/05/15,07:30,0.545,0.793,0.482,0.974,0.696,0.317,0.568,0.535,��,6.8,��
2023/05/15,07:40,0.546,0.792,0.482,0.974,0.696,0.317,0.568,0.536,��쐼,6.9,��
2023/05/15,07:50,0.547,0.791,0.482,0.976,0.696,0.316,0.568,0.534,��,6.5,��
2023/05/15,08:00,0.546,0.794,0.481,0.973,0.696,0.318,0.569,0.536,��쐼,6.9,��
2023/05/15,08:10,0.546,0.794,0.482,0.974,0.696,0.317,0.568,0.535,��,6.2,��
2023/05/15,08:20,0.547,0.795,0.482,0.973,0.695,0.317,0.568,0.535,��쐼,5.3,�L
2023/05/15,08:30,0.548,0.793,0.482,0.974,0.696,0.317,0.569,0.535,��,6.5,�L
2023/05/15,08:40,0.545,0.791,0.482,0.974,0.697,0.317,0.567,0.535,��쐼,6.2,�L
2023/05/15,08:50,0.549,0.794,0.482,0.974,0.697,0.317,0.568,0.535,��,6.7,�L
2023/05/15,09:00,0.547,0.796,0.483,0.975,0.699,0.318,0.569,0.537,��,6.4,�L
2023/05/15,09:10,0.548,0.795,0.484,0.974,0.697,0.317,0.568,0.536,��,5.9,�L
2023/05/15,09:20,0.549,0.798,0.483,0.975,0.698,0.319,0.569,0.536,��,6.1,�L
2023/05/15,09:30,0.550,0.796,0.483,0.975,0.700,0.317,0.569,0.536,��쐼,4.7,�L
2023/05/15,09:40,0.551,0.798,0.484,0.977,0.699,0.319,0.568,0.537,��,5.7,��
2023/05/15,09:50,0.550,0.798,0.483,0.977,0.699,0.319,0.569,0.537,��쓌,6.0,��
2023/05/15,10:00,0.548,0.797,0.483,0.975,0.700,0.319,0.569,0.536,��쓌,6.9,��
2023/05/15,10:10,0.550,0.796,0.484,0.979,0.698,0.318,0.569,0.536,��쓌,7.8,��
2023/05/15,10:20,0.551,0.797,0.484,0.975,0.700,0.319,0.569,0.536,��쓌,6.9,�L
2023/05/15,10:30,0.550,0.798,0.485,0.976,0.701,0.319,0.569,0.537,��쓌,7.8,��
2023/05/15,10:40,0.550,0.800,0.485,0.978,0.701,0.320,0.570,0.536,��쓌,6.0,�L
2023/05/15,10:50,0.550,0.798,0.484,0.976,0.703,0.321,0.568,0.537,��쓌,6.5,�L
2023/05/15,11:00,0.552,0.798,0.485,0.977,0.701,0.319,0.568,0.537,�쓌,6.9,�L
2023/05/15,11:10,0.550,0.798,0.484,0.973,0.702,0.318,0.569,0.537,�쓌,7.2,�L
2023/05/15,11:20,0.549,0.800,0.484,0.978,0.696,0.320,0.568,0.536,�쓌,7.4,�L
2023/05/15,11:30,0.551,0.799,0.484,0.977,0.701,0.318,0.568,0.538,�쓌,6.8,�L
2023/05/15,11:40,0.551,0.801,0.483,0.977,0.700,0.319,0.568,0.537,�쓌,6.5,�L
2023/05/15,11:50,0.551,0.800,0.484,0.978,0.702,0.317,0.568,0.536,�쓌,5.6,��
2023/05/15,12:00,0.551,0.801,0.485,0.979,0.702,0.318,0.569,0.536,�쓌,5.6,��
2023/05/15,12:10,0.551,0.801,0.484,0.978,0.703,0.319,0.570,0.537,�쓌,6.9,�L
2023/05/15,12:20,0.552,0.801,0.484,0.979,0.702,0.318,0.570,0.535,��쓌,7.5,��
2023/05/15,12:30,0.550,0.803,0.486,0.979,0.704,0.318,0.570,0.535,��쓌,7.6,�L
2023/05/15,12:40,0.549,0.801,0.485,0.977,0.702,0.319,0.569,0.536,��쓌,6.9,�L
2023/05/15,12:50,0.550,0.801,0.486,0.979,0.702,0.318,0.570,0.537,��쓌,6.4,�L
2023/05/15,13:00,0.550,0.802,0.486,0.978,0.703,0.321,0.569,0.537,��쓌,7.1,�L
2023/05/15,13:10,0.551,0.800,0.487,0.978,0.702,0.319,0.571,0.537,��,6.2,�L
2023/05/15,13:20,0.552,0.803,0.487,0.978,0.702,0.320,0.570,0.536,��쓌,7.1,�L
2023/05/15,13:30,0.552,0.801,0.487,0.979,0.701,0.318,0.573,0.536,��쓌,5.0,��
2023/05/15,13:40,0.552,0.801,0.488,0.978,0.702,0.320,0.570,0.535,��쓌,3.9,��
2023/05/15,13:50,0.552,0.801,0.487,0.981,0.702,0.320,0.571,0.538,��쓌,4.1,��
2023/05/15,14:00,0.552,0.800,0.488,0.981,0.702,0.320,0.570,0.538,��쓌,3.8,��
2023/05/15,14:10,0.553,0.802,0.487,0.979,0.703,0.320,0.572,0.537,��,3.5,��
2023/05/15,14:20,0.552,0.803,0.486,0.980,0.703,0.319,0.571,0.537,��쓌,4.1,��
2023/05/15,14:30,0.553,0.803,0.486,0.980,0.703,0.320,0.573,0.538,��,4.5,��
2023/05/15,14:40,0.554,0.802,0.487,0.983,0.704,0.320,0.571,0.537,��쓌,4.0,��
2023/05/15,14:50,0.552,0.803,0.487,0.980,0.703,0.320,0.572,0.537,��쓌,4.9,��
2023/05/15,15:00,0.552,0.802,0.486,0.981,0.704,0.320,0.571,0.538,��쓌,4.8,��
2023/05/15,15:10,0.551,0.803,0.486,0.980,0.704,0.320,0.572,0.538,��쓌,3.8,��
2023/05/15,15:20,0.552,0.803,0.488,0.980,0.704,0.320,0.571,0.537,�쓌,3.3,��
2023/05/15,15:30,0.553,0.804,0.487,0.979,0.704,0.319,0.572,0.538,�쓌,3.3,��
2023/05/15,15:40,0.551,0.803,0.487,0.980,0.705,0.319,0.571,0.537,�쓌,3.3,��
2023/05/15,15:50,0.552,0.804,0.487,0.982,0.703,0.320,0.571,0.537,�쓌,3.3,��
2023/05/15,16:00,0.552,0.804,0.488,0.980,0.706,0.320,0.570,0.537,�쓌,3.5,��
2023/05/15,16:10,0.553,0.805,0.486,0.980,0.705,0.320,0.573,0.537,���쓌,3.0,��
2023/05/15,16:20,0.552,0.805,0.487,0.982,0.704,0.320,0.572,0.537,���쓌,1.9,��
2023/05/15,16:30,0.553,0.804,0.488,0.982,0.705,0.319,0.571,0.537,���쓌,1.9,��
2023/05/15,16:40,0.554,0.805,0.487,0.983,0.705,0.320,0.573,0.537,���쓌,2.0,��
2023/05/15,16:50,0.554,0.806,0.486,0.982,0.705,0.319,0.571,0.537,��,1.4,��
2023/05/15,17:00,0.552,0.804,0.488,0.984,0.705,0.319,0.572,0.537,���쓌,0.6,��
2023/05/15,17:10,0.551,0.807,0.487,0.982,0.704,0.319,0.570,0.539,���쓌,1.1,��
2023/05/15,17:20,0.553,0.805,0.488,0.983,0.706,0.321,0.572,0.538,�k��,0.6,��
2023/05/15,17:30,0.553,0.807,0.487,0.983,0.706,0.320,0.570,0.538,��,1.2,��
2023/05/15,17:40,0.554,0.806,0.488,0.983,0.705,0.320,0.571,0.538,��,1.5,��
2023/05/15,17:50,0.553,0.805,0.487,0.982,0.705,0.321,0.571,0.537,��,1.5,��
2023/05/15,18:00,0.553,0.807,0.489,0.979,0.706,0.321,0.571,0.538,��,2.6,��
2023/05/15,18:10,0.551,0.808,0.490,0.984,0.705,0.321,0.570,0.538,��,3.3,��
2023/05/15,18:20,0.555,0.809,0.490,0.980,0.708,0.321,0.571,0.541,���쓌,2.3,��
2023/05/15,18:30,0.556,0.807,0.491,0.984,0.708,0.321,0.571,0.540,���쓌,1.7,��
2023/05/15,18:40,0.557,0.809,0.488,0.984,0.706,0.320,0.571,0.540,�쓌,1.2,��
2023/05/15,18:50,0.556,0.810,0.492,0.984,0.706,0.322,0.571,0.542,���쓌,0.8,��
2023/05/15,19:00,0.555,0.806,0.490,0.982,0.706,0.321,0.573,0.539,���쓌,0.9,��
2023/05/15,19:10,0.555,0.808,0.490,0.982,0.709,0.322,0.572,0.541,-,CALM,��
2023/05/15,19:20,0.555,0.807,0.490,0.983,0.707,0.320,0.573,0.540,-,CALM,�L
2023/05/15,19:30,0.556,0.807,0.490,0.982,0.710,0.322,0.573,0.539,�k�k��,0.9,�L
2023/05/15,19:40,0.555,0.809,0.490,0.984,0.707,0.323,0.573,0.540,�k��,1.7,�L
2023/05/15,19:50,0.556,0.808,0.489,0.983,0.709,0.324,0.571,0.540,�k��,2.5,�L
2023/05/15,20:00,0.554,0.809,0.490,0.984,0.710,0.322,0.570,0.540,�k��,2.6,��
2023/05/15,20:10,0.555,0.808,0.490,0.982,0.708,0.323,0.573,0.540,�k��,2.3,��
2023/05/15,20:20,0.554,0.807,0.489,0.984,0.710,0.322,0.572,0.539,�k��,2.3,��
2023/05/15,20:30,0.556,0.807,0.491,0.986,0.709,0.321,0.573,0.539,�k�k��,2.3,��
2023/05/15,20:40,0.555,0.809,0.490,0.984,0.707,0.323,0.574,0.539,�k�k��,1.7,�L
2023/05/15,20:50,0.556,0.807,0.490,0.980,0.708,0.322,0.571,0.539,�k�k��,2.6,�L
2023/05/15,21:00,0.557,0.808,0.491,0.980,0.708,0.321,0.575,0.539,�k�k��,2.5,�L
2023/05/15,21:10,0.554,0.809,0.491,0.983,0.707,0.323,0.573,0.541,�k�k��,3.2,��
2023/05/15,21:20,0.556,0.808,0.491,0.982,0.709,0.323,0.573,0.540,�k��,4.0,��
2023/05/15,21:30,0.555,0.809,0.489,0.984,0.707,0.322,0.572,0.539,�k�k��,3.6,��
2023/05/15,21:40,0.555,0.808,0.489,0.983,0.709,0.323,0.572,0.540,�k��,3.9,��
2023/05/15,21:50,0.556,0.807,0.490,0.982,0.708,0.323,0.572,0.540,�k��,4.3,��
2023/05/15,22:00,0.556,0.808,0.490,0.981,0.709,0.322,0.571,0.541,�k�k��,4.9,��
2023/05/15,22:10,0.555,0.808,0.490,0.982,0.708,0.322,0.572,0.541,�k�k��,4.6,��
2023/05/15,22:20,0.556,0.807,0.491,0.984,0.709,0.321,0.574,0.540,�k�k��,4.6,��
2023/05/15,22:30,0.554,0.806,0.489,0.983,0.710,0.323,0.573,0.540,�k�k��,4.6,��
2023/05/15,22:40,0.556,0.808,0.491,0.984,0.708,0.322,0.573,0.540,�k�k��,4.0,��
2023/05/15,22:50,0.556,0.808,0.490,0.984,0.709,0.322,0.572,0.540,�k�k��,4.1,��
2023/05/15,23:00,0.556,0.807,0.491,0.982,0.709,0.322,0.572,0.540,�k�k��,4.6,��
2023/05/15,23:10,0.556,0.808,0.490,0.982,0.709,0.324,0.575,0.541,�k�k��,4.8,��
2023/05/15,23:20,0.555,0.808,0.490,0.984,0.709,0.324,0.572,0.540,�k�k��,5.3,��
2023/05/15,23:30,0.555,0.809,0.492,0.983,0.709,0.324,0.573,0.541,�k�k��,5.2,��
2023/05/15,23:40,0.554,0.808,0.487,0.985,0.708,0.324,0.574,0.540,�k�k��,5.6,��
2023/05/15,23:50,0.553,0.808,0.490,0.984,0.709,0.322,0.573,0.540,�k�k��,6.2,��
